Onweer van: 25-07-2021 11:00 tot: 20:00 waarschuwing voor: Onweer niveau: Geel info button


waarschuwing voor Onweer Meer informatie blitzortung!


Regen radar Meer informatie rain snow radar


Bezoek onze andere website:

Template documentation
and downloads

And another site



15 daagse weersverwachting Hillerød (DK)

  • Overzicht
  • Per uur
  • 15 dagen
  • Extra
  • Vergelijk
  • Kaarten
  • Dagkaart
  • Meer »
  • Info
  • Statistieken
  • Directe link
    Temp 6h Neerslag Wind  
 05:06     21:30    Daglengte: 16:24 Vandaag
08:00
20°
 
6
14:00
24°
 
6
20:00
23°
 
5
 05:07     21:29    Daglengte: 16:22 Morgen
02:00
20°
 
4
08:00
21°
 
4
14:00
26°
 
5
20:00
22°
1.1 mm
1
 05:09     21:27    Daglengte: 16:18 Dinsdag 27 Jul
02:00
19°
1.9 mm
2
08:00
20°
2.4 mm
3
14:00
23°
1.7 mm
5
20:00
21°
 
3
 05:11     21:25    Daglengte: 16:14 Woensdag 28 Jul
02:00
17°
 
2
Locatie info
Region: Hovedstaden
Latitude: 55.9290°N
Longitude: 12.3057°E
29 masl
Postcode: 3400
Temp/Neerslag /Baro Onweer/Dauwpunt
    Temp Baro 1h Neerslag Dauwpunt Wind UV Bewolking  
 05:06     21:30    Daglengte: 16:24 Vandaag
05:00
18°
1013.3 hPa   15.2°
5
Windvlaag: 3.3 m/s
70%
06:00
18°
1013.0 hPa   15.4°
5
Windvlaag: 4 m/s
69%
07:00
19°
1013.0 hPa   15.5°
6
Windvlaag: 4.7 m/s
74%
08:00
20°
1012.9 hPa   15.4°
6
Windvlaag: 4.6 m/s
73%
09:00
21°
1013.1 hPa   15.1°
6
Windvlaag: 5 m/s
74%
10:00
22°
1013.2 hPa
17%
15.2°
6
Windvlaag: 5.3 m/s
75%
11:00
22°
1013.2 hPa
17%
15.2°
7
Windvlaag: 5.3 m/s
41%
12:00
23°
1013.1 hPa   14.6°
7
Windvlaag: 5.7 m/s
62%
13:00
24°
1013.2 hPa   13.4°
7
Windvlaag: 5.8 m/s
81%
14:00
24°
1013.0 hPa
17%
12.0°
6
Windvlaag: 5.1 m/s
57%
15:00
25°
1012.9 hPa
17%
11.9°
6
Windvlaag: 4.5 m/s
71%
16:00
24°
1012.8 hPa
19%
12.2°
6
Windvlaag: 4.3 m/s
77%
17:00
24°
1012.5 hPa
18%
12.8°
5
Windvlaag: 4.1 m/s
59%
18:00
24°
1012.3 hPa   13.2°
6
Windvlaag: 4.3 m/s
61%
19:00
24°
1012.3 hPa   13.6°
6
Windvlaag: 5 m/s
23%
20:00
23°
1012.3 hPa
12%
13.9°
5
Windvlaag: 5.4 m/s
44%
21:00
22°
1012.6 hPa
11%
14.7°
4
Windvlaag: 4.6 m/s
42%
22:00
21°
1012.6 hPa   15.2°
4
Windvlaag: 3.9 m/s
42%
23:00
21°
1012.7 hPa   15.8°
4
Windvlaag: 3.3 m/s
39%
 05:07     21:29    Daglengte: 16:22 Morgen
00:00
20°
1012.6 hPa   16.1°
4
Windvlaag: 3.1 m/s
28%
01:00
20°
1012.4 hPa   16.3°
4
Windvlaag: 2.9 m/s
24%
02:00
20°
1012.1 hPa
13%
16.8°
4
Windvlaag: 2.7 m/s
39%
03:00
19°
1011.8 hPa
14%
17.2°
4
Windvlaag: 1.3 m/s
65%
04:00
19°
1011.5 hPa
14%
17.4°
4
Windvlaag: 1.9 m/s
76%
05:00
19°
1011.6 hPa
14%
17.6°
4
Windvlaag: 1.9 m/s
74%
06:00
19°
1011.5 hPa
29%
17.9°
4
Windvlaag: 2 m/s
75%
07:00
20°
1011.6 hPa
82%
17.8°
4
Windvlaag: 2.3 m/s
84%
08:00
21°
1011.4 hPa
82%
17.4°
4
Windvlaag: 2.5 m/s
84%
09:00
22°
1011.6 hPa
82%
16.7°
4
Windvlaag: 3.4 m/s
86%
10:00
23°
1011.6 hPa
82%
16.9°
4
Windvlaag: 3.1 m/s
86% warningclass
11:00
24°
1011.7 hPa
82%
16.4°
4
Windvlaag: 3.7 m/s
62%
12:00
26°
1011.5 hPa
82%
15.5°
4
Windvlaag: 3.9 m/s
77%
13:00
26°
1011.1 hPa
82%
15.2°
5
Windvlaag: 3.9 m/s
79%
14:00
26°
1010.7 hPa
82%
14.3°
5
Windvlaag: 3.7 m/s
51%
15:00
27°
1010.3 hPa
82%
13.3°
5
Windvlaag: 4.2 m/s
72%
16:00
27°
1010.1 hPa 0.6 mm
82%
13.6°
5
Windvlaag: 4.3 m/s
77%
17:00
26°
1009.8 hPa
80%
15.4°
4
Windvlaag: 4.5 m/s
74%
18:00
24°
1009.8 hPa
77%
18.7°
3
Windvlaag: 5.4 m/s
77%
19:00
24°
1009.7 hPa 0.5 mm
73%
18.5°
3
Windvlaag: 5.8 m/s
80%
20:00
22°
1009.6 hPa
67%
17.6°
1
Windvlaag: 5.4 m/s
80%
21:00
21°
1009.6 hPa
69%
18.8°
2
Windvlaag: 2 m/s
81%
22:00
21°
1009.7 hPa
68%
18.8°
3
Windvlaag: 1.1 m/s
80%
23:00
20°
1009.9 hPa
92%
16.0°
3
Windvlaag: 1.6 m/s
93%
 05:09     21:27    Daglengte: 16:18 Dinsdag 27 Jul
00:00
20°
1009.8 hPa 0.5 mm
98%
17.1°
2
Windvlaag: 1.3 m/s
91%
01:00
19°
1009.4 hPa 0.5 mm
95%
16.9°
2
Windvlaag: 1.2 m/s
86%
02:00
19°
1009.3 hPa 0.8 mm
94%
16.4°
2
Windvlaag: 3 m/s
93%
03:00
19°
1009.1 hPa
96%
17.1°
3
Windvlaag: 4.4 m/s
90%
04:00
19°
1008.6 hPa 1.6 mm
90%
17.5°
2
Windvlaag: 5.1 m/s
77%
05:00
18°
1008.7 hPa 0.8 mm
37%
17.1°
2
Windvlaag: 3.9 m/s
72%
06:00
18°
1008.4 hPa
32%
17.6°
2
Windvlaag: 4.7 m/s
93%
07:00
19°
1008.3 hPa
30%
17.5°
2
Windvlaag: 4 m/s
94%
08:00
20°
1008.3 hPa
34%
16.8°
3
Windvlaag: 5 m/s
74%
09:00
21°
1008.3 hPa
40%
15.5°
3
Windvlaag: 7.1 m/s
14%
10:00
21°
1008.6 hPa 0.9 mm
100%
14.4°
4
Windvlaag: 7.1 m/s
20%
11:00
21°
1008.4 hPa 0.8 mm
100%
13.2°
4
Windvlaag: 7.5 m/s
48%
12:00
22°
1008.5 hPa
100%
13.1°
4
Windvlaag: 7.3 m/s
11%
13:00
22°
1008.6 hPa
100%
12.0°
5
Windvlaag: 7.7 m/s
47%
14:00
23°
1008.7 hPa
89%
11.5°
5
Windvlaag: 8.1 m/s
46%
15:00
23°
1008.5 hPa
34%
11.9°
5
Windvlaag: 8.2 m/s
20%
16:00
22°
1008.9 hPa
99%
11.0°
5
Windvlaag: 7.6 m/s
20%
17:00
22°
1008.8 hPa
91%
11.5°
5
Windvlaag: 7.3 m/s
20%
18:00
22°
1008.9 hPa
39%
12.2°
4
Windvlaag: 6.7 m/s
20%
19:00
22°
1008.9 hPa
25%
10.0°
4
Windvlaag: 6 m/s
13%
20:00
21°
1009.0 hPa
30%
10.1°
3
Windvlaag: 6.1 m/s
12%
21:00
20°
1009.7 hPa
26%
10.8°
2
Windvlaag: 4.8 m/s
13%
22:00
19°
1010.2 hPa
28%
12.2°
2
Windvlaag: 4.9 m/s
10%
23:00
17°
1010.4 hPa
25%
14.2°
2
Windvlaag: 5.8 m/s
40%
 05:11     21:25    Daglengte: 16:14 Woensdag 28 Jul
00:00
17°
1010.5 hPa
22%
14.1°
2
Windvlaag: 6.5 m/s
48%
01:00
17°
1010.3 hPa
21%
14.0°
2
Windvlaag: 7.4 m/s
43%
02:00
17°
1009.9 hPa
21%
14.8°
2
Windvlaag: 6.9 m/s
69%
Temp/Neerslag /Baro Onweer/Dauwpunt
    Temp Baro Neerslag Dauwpunt Wind Bewolking  
 05:06     21:30    Daglengte: 16:24 Vandaag
05:00
18°
1013.3 hPa   15.2°
5
70%
08:00
20°
1012.9 hPa   15.4°
6
73%
11:00
22°
1013.2 hPa   15.2°
7
41%
14:00
24°
1013.0 hPa   12.0°
6
57%
17:00
24°
1012.5 hPa   12.8°
5
59%
20:00
23°
1012.3 hPa   13.9°
5
44%
23:00
21°
1012.7 hPa   15.8°
4
39%
 05:07     21:29    Daglengte: 16:22 Morgen
02:00
20°
1012.1 hPa   16.8°
4
39%
05:00
19°
1011.6 hPa   17.6°
4
74%
08:00
21°
1011.4 hPa   17.4°
4
84%
11:00
24°
1011.7 hPa   16.4°
4
62%
14:00
26°
1010.7 hPa   14.3°
5
51%
17:00
26°
1009.8 hPa 0.6 mm 15.4°
4
74%
20:00
22°
1009.6 hPa 0.5 mm 17.6°
1
80%
23:00
20°
1009.9 hPa   16.0°
3
93%
 05:09     21:27    Daglengte: 16:18 Dinsdag 27 Jul
02:00
19°
1009.3 hPa 1.9 mm 16.4°
2
93%
05:00
18°
1008.7 hPa 2.4 mm 17.1°
2
72%
08:00
20°
1008.3 hPa   16.8°
3
74%
11:00
21°
1008.4 hPa 1.7 mm 13.2°
4
48%
14:00
23°
1008.7 hPa   11.5°
5
46%
17:00
22°
1008.8 hPa   11.5°
5
20%
20:00
21°
1009.0 hPa   10.1°
3
12%
23:00
17°
1010.4 hPa   14.2°
2
40%
 05:11     21:25    Daglengte: 16:14 Woensdag 28 Jul
02:00
17°
1009.9 hPa   14.8°
2
69%
05:00
17°
1008.9 hPa 8.0 mm 14.2°
2
1%
08:00
18°
1008.2 hPa 8.3 mm 14.5°
2
1%
11:00
19°
1007.7 hPa 9.4 mm 16.0°
3
1%
14:00
23°
1007.4 hPa 10.6 mm 14.1°
7
1%
17:00
23°
1007.8 hPa 10.8 mm 13.4°
7
1%
20:00
19°
1008.2 hPa 11.5 mm 15.3°
7
1%
23:00
17°
1009.1 hPa 11.6 mm 13.5°
6
0%
 05:13     21:23    Daglengte: 16:10 Donderdag 29 Jul
02:00
16°
1009.3 hPa 11.6 mm 12.0°
5
1%
05:00
16°
1009.6 hPa 11.7 mm 11.5°
5
1%
08:00
17°
1009.6 hPa 11.7 mm 12.4°
6
0%
11:00
21°
1009.0 hPa 11.7 mm 11.2°
6
0%
14:00
23°
1008.0 hPa 11.7 mm 10.3°
7
0%
17:00
23°
1007.4 hPa 11.7 mm 11.5°
7
0%
20:00
21°
1006.4 hPa 11.7 mm 11.5°
5
1%
23:00
18°
1005.0 hPa 11.8 mm 12.0°
5
1%
 05:15     21:21    Daglengte: 16:06 Vrijdag 30 Jul
02:00
18°
1003.7 hPa 11.9 mm 13.1°
6
1%
05:00
16°
1003.8 hPa 12.5 mm 11.2°
8
1%
08:00
17°
1004.1 hPa 12.5 mm 10.8°
8
1%
11:00
20°
1004.4 hPa 12.5 mm 9.3°
10
0%
14:00
21°
1004.3 hPa 12.5 mm 8.8°
9
0%
17:00
20°
1004.0 hPa 12.7 mm 9.9°
9
1%
20:00
16°
1003.5 hPa 13.7 mm 12.4°
9
1%
23:00
15°
1003.4 hPa 14.5 mm 12.1°
8
1%
 05:16     21:19    Daglengte: 16:03 Zaterdag 31 Jul
02:00
15°
1003.9 hPa 15.3 mm 11.3°
8
1%
05:00
15°
1003.6 hPa 15.7 mm 12.2°
7
1%
08:00
17°
1003.3 hPa 16.4 mm 13.3°
7
1%
11:00
19°
1003.0 hPa 17.4 mm 13.4°
7
1%
14:00
19°
1002.3 hPa 19.6 mm 14.2°
7
1%
17:00
17°
1002.2 hPa 22.5 mm 14.5°
8
1%
20:00
15°
1002.4 hPa 24.4 mm 12.9°
6
1%
23:00
15°
1002.8 hPa 25.6 mm 11.7°
6
1%
 05:18     21:17    Daglengte: 15:59 Zondag 01 Aug
02:00
15°
1003.4 hPa 52.0 mm 11.0°
5
1%
08:00
16°
1005.4 hPa 53.6 mm 9.6°
6
1%
14:00
18°
1007.6 hPa 54.0 mm 9.7°
8
0%
20:00
17°
1008.5 hPa 54.7 mm 8.4°
6
1%
 05:20     21:15    Daglengte: 15:55 Maandag 02 Aug
02:00
14°
1009.1 hPa 55.0 mm 8.5°
4
1%
08:00
15°
1009.3 hPa 57.9 mm 10.0°
3
1%
14:00
18°
1010.5 hPa 63.6 mm 9.8°
5
1%
20:00
16°
1010.6 hPa 66.9 mm 10.3°
5
1%
 05:22     21:13    Daglengte: 15:51 Dinsdag 03 Aug
02:00
14°
1011.6 hPa 73.9 mm 12.0°
5
0%
14:00
18°
1014.9 hPa 121.7 mm 9.8°
5
1%
20:00
17°
1014.6 hPa 82.1 mm 10.5°
5
1%
 05:24     21:11    Daglengte: 15:47 Woensdag 04 Aug
02:00
15°
1006.5 hPa 0.8 mm 11.7°
3
59%
08:00
16°
1006.6 hPa 0.7 mm 11.9°
3
61%
14:00
19°
1007.3 hPa 1.8 mm 11.6°
4
60%
20:00
18°
1007.8 hPa 1.7 mm 12.1°
3
63%
 05:26     21:09    Daglengte: 15:43 Donderdag 05 Aug
02:00
15°
1008.7 hPa 0.8 mm 11.6°
3
50%
08:00
16°
1009.0 hPa 0.8 mm 12.0°
3
59%
14:00
19°
1009.7 hPa 1.1 mm 11.7°
3
59%
20:00
18°
1009.9 hPa 0.6 mm 12.1°
2
53%
 05:28     21:07    Daglengte: 15:39 Vrijdag 06 Aug
02:00
15°
1010.5 hPa 0.7 mm 12.2°
3
61%
08:00
16°
1010.7 hPa 0.5 mm 12.2°
3
65%
14:00
20°
1011.0 hPa 0.9 mm 12.2°
3
72%
20:00
18°
1010.6 hPa 1.3 mm 12.9°
3
68%
 05:30     21:05    Daglengte: 15:35 Zaterdag 07 Aug
02:00
16°
1010.8 hPa 0.9 mm 12.7°
2
77%
08:00
16°
1010.3 hPa 0.6 mm 12.9°
2
75%
14:00
20°
1010.2 hPa 0.7 mm 12.9°
3
70%
20:00
18°
1009.8 hPa 1.6 mm 13.0°
3
66%
 05:31     21:02    Daglengte: 15:31 Zondag 08 Aug
02:00
16°
1009.9 hPa 2.1 mm 12.8°
3
72%
08:00
17°
1009.6 hPa 0.6 mm 13.0°
2
79%
14:00
19°
1009.9 hPa 1.6 mm 13.3°
3
75%
20:00
19°
1010.0 hPa 1.3 mm 13.4°
4
54%
 05:33     21:00    Daglengte: 15:27 Maandag 09 Aug
02:00
16°
1010.5 hPa 0.9 mm 13.2°
4
60%
08:00
17°
1010.5 hPa 1.5 mm 13.4°
4
62%
  CAPE Lifted Index Hail Supercell Tornado SRH 3km CL BTM PRES CL TOP PRES Swiss DWD icon SMHI TS
 05:06     21:30    Daglengte: 16:24 Vandaag
05:00 0 J/kg 2.3 K 0 % 0 % 0 % 0 m²/s² 0 0 7.34 3
06:00 0 J/kg 2.1 K 0 % 0 % 0 % 0 m²/s² 0 0 7.02 3
07:00 0 J/kg 1.9 K 0 % 0 % 0 % 0 m²/s² 0 0 6.67 3
08:00 0 J/kg 1.7 K 0 % 0 % 0 % 0 m²/s² 0 0 6.23 3
09:00 0 J/kg 1.1 K 0 % 0 % 0 % 0 m²/s² 0 0 5 3
10:00 29 J/kg 0.2 K 0 % 0 % 0 % 0 m²/s² 0 0 3.53 3
11:00 94 J/kg 0.0 K 0 % 0 % 0 % 0 m²/s² 0 0 3.33 61
12:00 109 J/kg -0.1 K 0 % 0 % 0 % 0 m²/s² 0 0 3.41 3
13:00 109 J/kg -0.3 K 0 % 0 % 0 % 0 m²/s² 0 0 2.61 3
14:00 92 J/kg -0.2 K 0 % 0 % 0 % 0 m²/s² 0 0 2.26 3
15:00 89 J/kg -0.1 K 0 % 0 % 0 % 0 m²/s² 0 0 2.21 3
16:00 72 J/kg -0.2 K 0 % 0 % 0 % 0 m²/s² 0 0 2.11 80
17:00 57 J/kg -0.2 K 0 % 0 % 0 % 0 m²/s² 0 0 1.99 3
18:00 34 J/kg -0.1 K 0 % 0 % 0 % 0 m²/s² 0 0 1.94 3
19:00 19 J/kg 0.0 K 0 % 0 % 0 % 0 m²/s² 0 0 1.98 2
20:00 0 J/kg 0.3 K 0 % 0 % 0 % 0 m²/s² 0 0 2.55 3
21:00 1 J/kg 0.1 K 0 % 0 % 0 % 0 m²/s² 0 0 2.02 3
22:00 0 J/kg 0.3 K 0 % 0 % 0 % 0 m²/s² 0 0 1.8 3
23:00 0 J/kg -1.1 K 0 % 0 % 0 % 0 m²/s² 0 0 0.16 3
 05:07     21:29    Daglengte: 16:22 Morgen
00:00 21 J/kg -2.1 K 0 % 0 % 0 % 0 m²/s² 0 0 -1.14 3
01:00 7 J/kg -0.9 K 0 % 0 % 0 % 0 m²/s² 0 0 -0.27 3
02:00 44 J/kg -1.3 K 0 % 0 % 0 % 0 m²/s² 0 0 -1.18 3
03:00 153 J/kg -1.2 K 0 % 0 % 0 % 0 m²/s² 0 0 -1.2 3
04:00 40 J/kg -0.9 K 0 % 0 % 0 % 0 m²/s² 0 0 -0.9 3
05:00 8 J/kg -1.8 K 0 % 0 % 0 % 0 m²/s² 0 0 -1.77 3
06:00 72 J/kg -2.3 K 0 % 0 % 0 % 0 m²/s² 0 0 -2 3
07:00 252 J/kg -2.3 K 0 % 0 % 0 % 0 m²/s² 0 0 -1.91 61
08:00 302 J/kg -1.7 K 0 % 0 % 0 % 0 m²/s² 0 0 -0.74 61
09:00 27 J/kg -1.0 K 0 % 0 % 0 % 0 m²/s² 0 0 0.2 61
10:00 51 J/kg -1.2 K 0 % 0 % 0 % 0 m²/s² 0 0 0.18 95
11:00 292 J/kg -1.5 K 0 % 0 % 0 % 0 m²/s² 0 0 -0.06 80
12:00 236 J/kg -1.3 K 0 % 0 % 0 % 0 m²/s² 0 0 0.14 61
13:00 367 J/kg -1.8 K 0 % 0 % 0 % 0 m²/s² 0 0 -0.63 3
14:00 344 J/kg -1.8 K 0 % 0 % 0 % 0 m²/s² 0 0 -0.36 61
15:00 456 J/kg -2.2 K 0 % 0 % 0 % 0 m²/s² 0 0 -0.58 61
16:00 507 J/kg -2.3 K 0 % 0 % 0 % 0 m²/s² 0 0 0.1 61
17:00 621 J/kg -3.1 K 0 % 0 % 0 % 0 m²/s² 0 0 0.02 61
18:00 703 J/kg -2.9 K 0 % 0 % 0 % 0 m²/s² 0 0 0.13 61
19:00 674 J/kg -3.2 K 0 % 0 % 0 % 0 m²/s² 0 0 -0.26 61
20:00 740 J/kg -3.8 K 0 % 0 % 0 % 0 m²/s² 0 0 -1.4 3
21:00 492 J/kg -2.3 K 0 % 0 % 0 % 0 m²/s² 0 0 -0.2 3
22:00 469 J/kg -2.0 K 0 % 0 % 0 % 0 m²/s² 0 0 -0.8 3
23:00 546 J/kg -2.5 K 0 % 0 % 0 % 0 m²/s² 0 0 -0.52 3
 05:09     21:27    Daglengte: 16:18 Dinsdag 27 Jul
00:00 552 J/kg -2.3 K 0 % 0 % 0 % 0 m²/s² 0 0 0.46 3
01:00 149 J/kg -2.3 K 0 % 0 % 0 % 0 m²/s² 0 0 0.31 3
02:00 381 J/kg -3.1 K 0 % 0 % 0 % 0 m²/s² 0 0 -1.93 3
03:00 623 J/kg -3.8 K 0 % 0 % 0 % 0 m²/s² 0 0 -1.58 3
04:00 580 J/kg -4.0 K 0 % 0 % 0 % 0 m²/s² 0 0 -1.48 3
05:00 561 J/kg -2.9 K 0 % 0 % 0 % 0 m²/s² 0 0 -0.47 3
06:00 573 J/kg -2.9 K 0 % 0 % 0 % 0 m²/s² 0 0 -1.07 3
07:00 474 J/kg -2.5 K 0 % 0 % 0 % 0 m²/s² 0 0 -1.09 3
08:00 436 J/kg -2.1 K 0 % 0 % 0 % 0 m²/s² 0 0 -0.33 2
09:00 231 J/kg -1.1 K 0 % 0 % 0 % 0 m²/s² 0 0 1.54 2
10:00 172 J/kg -0.9 K 0 % 0 % 0 % 0 m²/s² 0 0 2.22 80
11:00 1 J/kg -0.1 K 0 % 0 % 0 % 0 m²/s² 0 0 4.91 80
12:00 92 J/kg -0.3 K 0 % 0 % 0 % 0 m²/s² 0 0 4.83 2
13:00 108 J/kg -0.2 K 0 % 0 % 0 % 0 m²/s² 0 0 4 3
14:00 136 J/kg -0.1 K 0 % 0 % 0 % 0 m²/s² 0 0 2.33 2
15:00 263 J/kg -0.3 K 0 % 0 % 0 % 0 m²/s² 0 0 0.99 2
16:00 355 J/kg -0.9 K 0 % 0 % 0 % 0 m²/s² 0 0 0.15 2
17:00 365 J/kg -1.3 K 0 % 0 % 0 % 0 m²/s² 0 0 0.05 2
18:00 458 J/kg -2.0 K 0 % 0 % 0 % 0 m²/s² 0 0 0.37 2
19:00 212 J/kg -0.9 K 0 % 0 % 0 % 0 m²/s² 0 0 2.07 2
20:00 221 J/kg -1.0 K 0 % 0 % 0 % 0 m²/s² 0 0 2.3 2
21:00 406 J/kg -1.8 K 0 % 0 % 0 % 0 m²/s² 0 0 2.37 1
22:00 481 J/kg -2.3 K 0 % 0 % 0 % 0 m²/s² 0 0 1.66 1
23:00 421 J/kg -2.1 K 0 % 0 % 0 % 0 m²/s² 0 0 1.2 3
 05:11     21:25    Daglengte: 16:14 Woensdag 28 Jul
00:00 506 J/kg -2.3 K 0 % 0 % 0 % 0 m²/s² 0 0 0.34 3
01:00 346 J/kg -1.3 K 0 % 0 % 0 % 0 m²/s² 0 0 2.27 3
02:00 597 J/kg -2.5 K 0 % 0 % 0 % 0 m²/s² 0 0 1.1 3
Temp Baro Wind Neerslag
  EWN Forecast EWN WRFDA DWD ICON FMI HIRLAM MET Norway GFS
 05:06     21:30    Daglengte: 16:24 Vandaag
05:00 17.9° 1013.3 hPa 4.9 m/s 0.0 mm 17.2° 1012.3 hPa 5.5 m/s 0.0 mm 17.2° 1013.7 hPa 4.0 m/s -2.0 mm 18.0° 1013.4 hPa 4.8 m/s 0.0 mm 17.1° 1013.2 hPa 6.6 m/s
08:00 19.6° 1012.9 hPa 6.1 m/s 0.0 mm 20.0° 1012.0 hPa 7.0 m/s 0.0 mm 19.0° 1013.0 hPa 4.6 m/s 0.0 mm 20.3° 1013.0 hPa 6.2 m/s 0.0 mm 19.8° 1013.0 hPa 7.3 m/s
11:00 22.4° 1013.2 hPa 6.5 m/s 0.0 mm 24.1° 1012.3 hPa 7.9 m/s 0.0 mm 21.2° 1013.2 hPa 5.1 m/s 0.1 mm 22.6° 1013.0 hPa 6.7 m/s 0.0 mm 23.9° 1013.0 hPa 8.3 m/s
14:00 24.3° 1013.0 hPa 6.3 m/s 0.0 mm 26.2° 1011.8 hPa 7.2 m/s 0.0 mm 23.9° 1012.8 hPa 5.2 m/s 0.1 mm 25.9° 1013.2 hPa 6.3 m/s 0.0 mm 26.2° 1012.8 hPa 7.7 m/s
17:00 24.3° 1012.5 hPa 5.4 m/s 0.0 mm 25.9° 1011.5 hPa 7.5 m/s 0.0 mm 22.7° 1012.6 hPa 3.4 m/s 1.0 mm 25.9° 1012.7 hPa 5.3 m/s 0.0 mm 25.4° 1012.5 hPa 7.5 m/s
20:00 23.2° 1012.3 hPa 5.0 m/s 0.0 mm 23.3° 1011.2 hPa 6.3 m/s 0.0 mm 22.0° 1012.5 hPa 4.2 m/s 0.0 mm 23.5° 1012.6 hPa 4.7 m/s 0.0 mm 22.4° 1012.2 hPa 6.3 m/s
23:00 20.6° 1012.7 hPa 4.4 m/s 0.0 mm 20.6° 1011.6 hPa 6.6 m/s 0.0 mm 19.6° 1013.0 hPa 3.5 m/s 0.0 mm 20.7° 1012.8 hPa 4.1 m/s 0.0 mm 19.7° 1012.9 hPa 5.6 m/s
 05:07     21:29    Daglengte: 16:22 Morgen
02:00 19.6° 1012.1 hPa 4.3 m/s 0.0 mm 19.6° 1011.1 hPa 5.1 m/s 0.1 mm 18.9° 1012.2 hPa 3.4 m/s 0.0 mm 19.7° 1011.9 hPa 4.2 m/s 0.0 mm 18.7° 1012.2 hPa 5.2 m/s
05:00 19.2° 1011.6 hPa 4.1 m/s 0.0 mm 18.6° 1010.4 hPa 3.5 m/s 4.2 mm 18.5° 1011.7 hPa 3.3 m/s 0.0 mm 19.4° 1011.1 hPa 4.1 m/s 0.0 mm 18.0° 1011.4 hPa 4.0 m/s
08:00 20.7° 1011.4 hPa 4.2 m/s 0.0 mm 20.3° 1009.9 hPa 3.5 m/s 6.0 mm 19.0° 1012.2 hPa 2.4 m/s 0.8 mm 22.0° 1010.5 hPa 4.6 m/s 0.0 mm 20.4° 1011.6 hPa 5.2 m/s
11:00 24.2° 1011.7 hPa 4.5 m/s 0.0 mm 24.2° 1009.7 hPa 3.7 m/s 6.0 mm 20.0° 1012.2 hPa 2.3 m/s 3.1 mm 26.8° 1010.5 hPa 5.4 m/s 0.0 mm 24.5° 1012.2 hPa 6.8 m/s
14:00 26.0° 1010.7 hPa 4.9 m/s 0.0 mm 24.5° 1008.6 hPa 4.3 m/s 6.0 mm 21.8° 1011.4 hPa 2.8 m/s 0.3 mm 29.4° 1009.1 hPa 6.4 m/s 0.0 mm 26.1° 1011.9 hPa 6.8 m/s
17:00 26.4° 1009.8 hPa 4.3 m/s 0.6 mm 25.4° 1007.3 hPa 2.2 m/s 6.0 mm 20.7° 1010.7 hPa 1.3 m/s 1.2 mm 28.2° 1008.0 hPa 6.1 m/s 0.0 mm 25.5° 1011.4 hPa 6.4 m/s
20:00 22.3° 1009.6 hPa 1.4 m/s 0.5 mm 24.9° 1007.6 hPa 2.8 m/s 6.0 mm 20.1° 1010.3 hPa 1.0 m/s 0.5 mm 23.7° 1007.8 hPa 2.9 m/s 0.0 mm 23.3° 1011.4 hPa 5.1 m/s
23:00 20.5° 1009.9 hPa 2.6 m/s 0.0 mm 21.5° 1007.7 hPa 2.7 m/s 6.0 mm 18.6° 1010.2 hPa 1.1 m/s 0.0 mm 20.6° 1011.2 hPa 3.0 m/s
 05:09     21:27    Daglengte: 16:18 Dinsdag 27 Jul
02:00 19.1° 1009.3 hPa 2.4 m/s 1.9 mm 19.1° 1007.0 hPa 2.5 m/s 6.0 mm 18.1° 1009.5 hPa 1.0 m/s 0.4 mm 19.6° 1011.0 hPa 2.0 m/s
05:00 17.9° 1008.7 hPa 2.1 m/s 2.4 mm 17.1° 1007.2 hPa 1.9 m/s 6.0 mm 17.5° 1008.8 hPa 1.2 m/s 0.1 mm 19.0° 1009.6 hPa 1.7 m/s
08:00 19.9° 1008.3 hPa 2.9 m/s 0.0 mm 19.9° 1007.5 hPa 4.2 m/s 6.0 mm 19.6° 1008.2 hPa 2.9 m/s 0.0 mm 20.4° 1009.9 hPa 2.3 m/s
11:00 21.2° 1008.4 hPa 3.9 m/s 1.7 mm 22.3° 1008.4 hPa 5.4 m/s 6.0 mm 20.9° 1008.5 hPa 3.5 m/s 0.6 mm 23.7° 1010.0 hPa 3.8 m/s
14:00 22.8° 1008.7 hPa 4.8 m/s 0.0 mm 24.9° 1008.7 hPa 5.7 m/s 6.0 mm 22.2° 1008.6 hPa 4.6 m/s 0.2 mm 24.1° 1009.7 hPa 4.3 m/s
17:00 22.4° 1008.8 hPa 4.6 m/s 0.0 mm 24.8° 1008.5 hPa 4.6 m/s 6.3 mm 21.8° 1008.9 hPa 4.6 m/s 0.1 mm 23.7° 1010.1 hPa 5.9 m/s
20:00 21.2° 1009.0 hPa 3.4 m/s 0.0 mm 24.8° 1007.6 hPa 3.7 m/s 8.6 mm 20.4° 1009.4 hPa 3.3 m/s 0.0 mm 21.8° 1009.8 hPa 3.8 m/s
23:00 17.4° 1010.4 hPa 2.1 m/s 0.0 mm 19.5° 1008.4 hPa 2.1 m/s 8.8 mm 16.9° 1010.9 hPa 2.1 m/s 0.0 mm 18.0° 1010.7 hPa 2.9 m/s
 05:11     21:25    Daglengte: 16:14 Woensdag 28 Jul
02:00 16.6° 1009.9 hPa 2.0 m/s 0.0 mm 18.3° 1006.9 hPa 2.2 m/s 8.8 mm 16.2° 1010.6 hPa 1.9 m/s 0.0 mm 16.8° 1009.9 hPa 2.0 m/s
05:00 16.5° 1008.9 hPa 2.5 m/s 8.0 mm 16.5° 1008.9 hPa 2.5 m/s 8.0 mm
08:00 18.2° 1008.2 hPa 1.9 m/s 8.3 mm 18.2° 1008.2 hPa 1.9 m/s 8.3 mm
11:00 19.3° 1007.7 hPa 3.2 m/s 9.4 mm 19.3° 1007.7 hPa 3.2 m/s 9.4 mm
14:00 23.3° 1007.4 hPa 7.1 m/s 10.6 mm 23.3° 1007.4 hPa 7.1 m/s 10.6 mm
17:00 22.6° 1007.8 hPa 6.6 m/s 10.8 mm 22.6° 1007.8 hPa 6.6 m/s 10.8 mm
20:00 19.2° 1008.2 hPa 6.8 m/s 11.5 mm 19.2° 1008.2 hPa 6.8 m/s 11.5 mm
23:00 16.7° 1009.1 hPa 6.3 m/s 11.6 mm 16.7° 1009.1 hPa 6.3 m/s 11.6 mm
 05:13     21:23    Daglengte: 16:10 Donderdag 29 Jul
02:00 16.4° 1009.3 hPa 5.3 m/s 11.6 mm 16.4° 1009.3 hPa 5.3 m/s 11.6 mm
05:00 15.7° 1009.6 hPa 5.3 m/s 11.7 mm 15.7° 1009.6 hPa 5.3 m/s 11.7 mm
08:00 17.2° 1009.6 hPa 5.7 m/s 11.7 mm 17.2° 1009.6 hPa 5.7 m/s 11.7 mm
11:00 21.0° 1009.0 hPa 6.2 m/s 11.7 mm 21.0° 1009.0 hPa 6.2 m/s 11.7 mm
14:00 22.9° 1008.0 hPa 7.1 m/s 11.7 mm 22.9° 1008.0 hPa 7.1 m/s 11.7 mm
17:00 22.7° 1007.4 hPa 7.0 m/s 11.7 mm 22.7° 1007.4 hPa 7.0 m/s 11.7 mm
20:00 20.8° 1006.4 hPa 4.9 m/s 11.7 mm 20.8° 1006.4 hPa 4.9 m/s 11.7 mm
23:00 17.7° 1005.0 hPa 5.3 m/s 11.8 mm 17.7° 1005.0 hPa 5.3 m/s 11.8 mm
 05:15     21:21    Daglengte: 16:06 Vrijdag 30 Jul
02:00 17.6° 1003.7 hPa 6.3 m/s 11.9 mm 17.6° 1003.7 hPa 6.3 m/s 11.9 mm
05:00 15.5° 1003.8 hPa 7.6 m/s 12.5 mm 15.5° 1003.8 hPa 7.6 m/s 12.5 mm
08:00 16.9° 1004.1 hPa 7.8 m/s 12.5 mm 16.9° 1004.1 hPa 7.8 m/s 12.5 mm
11:00 19.7° 1004.4 hPa 9.9 m/s 12.5 mm 19.7° 1004.4 hPa 9.9 m/s 12.5 mm
14:00 21.3° 1004.3 hPa 9.2 m/s 12.5 mm 21.3° 1004.3 hPa 9.2 m/s 12.5 mm
17:00 19.7° 1004.0 hPa 9.4 m/s 12.7 mm 19.7° 1004.0 hPa 9.4 m/s 12.7 mm
20:00 16.3° 1003.5 hPa 8.7 m/s 13.7 mm 16.3° 1003.5 hPa 8.7 m/s 13.7 mm
23:00 15.3° 1003.4 hPa 8.4 m/s 14.5 mm 15.3° 1003.4 hPa 8.4 m/s 14.5 mm
 05:16     21:19    Daglengte: 16:03 Zaterdag 31 Jul
02:00 15.2° 1003.9 hPa 8.2 m/s 15.3 mm 15.2° 1003.9 hPa 8.2 m/s 15.3 mm
05:00 14.7° 1003.6 hPa 7.2 m/s 15.7 mm 14.7° 1003.6 hPa 7.2 m/s 15.7 mm
08:00 16.9° 1003.3 hPa 7.3 m/s 16.4 mm 16.9° 1003.3 hPa 7.3 m/s 16.4 mm
11:00 19.1° 1003.0 hPa 6.8 m/s 17.4 mm 19.1° 1003.0 hPa 6.8 m/s 17.4 mm
14:00 19.3° 1002.3 hPa 6.9 m/s 19.6 mm 19.3° 1002.3 hPa 6.9 m/s 19.6 mm
17:00 17.0° 1002.2 hPa 7.6 m/s 22.5 mm 17.0° 1002.2 hPa 7.6 m/s 22.5 mm
20:00 15.2° 1002.4 hPa 5.7 m/s 24.4 mm 15.2° 1002.4 hPa 5.7 m/s 24.4 mm
23:00 14.7° 1002.8 hPa 6.3 m/s 25.6 mm 14.7° 1002.8 hPa 6.3 m/s 25.6 mm
 05:18     21:17    Daglengte: 15:59 Zondag 01 Aug
02:00 14.5° 1003.4 hPa 4.7 m/s 26.4 mm 14.5° 1003.4 hPa 4.7 m/s 26.4 mm
08:00 15.6° 1005.4 hPa 6.2 m/s 26.9 mm 15.6° 1005.4 hPa 6.2 m/s 26.9 mm
14:00 18.3° 1007.6 hPa 7.6 m/s 27.1 mm 18.3° 1007.6 hPa 7.6 m/s 27.1 mm
20:00 17.2° 1008.5 hPa 5.8 m/s 27.4 mm 17.2° 1008.5 hPa 5.8 m/s 27.4 mm
 05:20     21:15    Daglengte: 15:55 Maandag 02 Aug
02:00 13.6° 1009.1 hPa 3.6 m/s 27.5 mm 13.6° 1009.1 hPa 3.6 m/s 27.5 mm
08:00 14.7° 1009.3 hPa 3.0 m/s 29.5 mm 14.7° 1009.3 hPa 3.0 m/s 29.5 mm
14:00 17.6° 1010.5 hPa 5.0 m/s 32.5 mm 17.6° 1010.5 hPa 5.0 m/s 32.5 mm
20:00 16.1° 1010.6 hPa 5.2 m/s 33.7 mm 16.1° 1010.6 hPa 5.2 m/s 33.7 mm
 05:22     21:13    Daglengte: 15:51 Dinsdag 03 Aug
02:00 14.3° 1011.6 hPa 5.2 m/s 38.2 mm 14.3° 1011.6 hPa 5.2 m/s 38.2 mm
14:00 18.5° 1014.9 hPa 5.4 m/s 41.1 mm 18.5° 1014.9 hPa 5.4 m/s 41.1 mm
20:00 17.1° 1014.6 hPa 4.6 m/s 41.1 mm 17.1° 1014.6 hPa 4.6 m/s 41.1 mm
 05:24     21:11    Daglengte: 15:47 Woensdag 04 Aug
02:00 15.1° 1006.5 hPa 2.8 m/s 0.8 mm
08:00 16.1° 1006.6 hPa 3.0 m/s 0.7 mm
14:00 18.7° 1007.3 hPa 3.9 m/s 1.8 mm
20:00 17.7° 1007.8 hPa 2.7 m/s 1.7 mm
 05:26     21:09    Daglengte: 15:43 Donderdag 05 Aug
02:00 15.2° 1008.7 hPa 2.6 m/s 0.8 mm
08:00 16.2° 1009.0 hPa 2.7 m/s 0.8 mm
14:00 19.3° 1009.7 hPa 3.2 m/s 1.1 mm
20:00 18.1° 1009.9 hPa 2.2 m/s 0.6 mm
 05:28     21:07    Daglengte: 15:39 Vrijdag 06 Aug
02:00 15.4° 1010.5 hPa 2.6 m/s 0.7 mm
08:00 16.4° 1010.7 hPa 2.6 m/s 0.5 mm
14:00 19.6° 1011.0 hPa 3.1 m/s 0.9 mm
20:00 18.4° 1010.6 hPa 2.5 m/s 1.3 mm
 05:30     21:05    Daglengte: 15:35 Zaterdag 07 Aug
02:00 15.9° 1010.8 hPa 2.3 m/s 0.9 mm
08:00 16.5° 1010.3 hPa 2.5 m/s 0.6 mm
14:00 19.5° 1010.2 hPa 3.1 m/s 0.7 mm
20:00 18.0° 1009.8 hPa 2.8 m/s 1.6 mm
 05:31     21:02    Daglengte: 15:31 Zondag 08 Aug
02:00 16.0° 1009.9 hPa 2.6 m/s 2.1 mm
08:00 16.6° 1009.6 hPa 2.4 m/s 0.6 mm
14:00 19.5° 1009.9 hPa 3.5 m/s 1.6 mm
20:00 18.5° 1010.0 hPa 3.6 m/s 1.3 mm
 05:33     21:00    Daglengte: 15:27 Maandag 09 Aug
02:00 16.1° 1010.5 hPa 3.6 m/s 0.9 mm
08:00 16.9° 1010.5 hPa 3.6 m/s 1.5 mm
FMI Hirlam - 7.5 km EWN WRFDA - 12 km DWD ICON - 7 km GFS - 25 km Basiskaart






























































Updatetijd (Europe/Amsterdam) Resolutie Lengte Stap
FMI Hirlam 02:00, 08:00, 14:00, 20:00 7.5 km 49h 1h
EWN WRFDA 22:15, 04:15, 10:15, 16:15 12 km 73h 1h
DWD ICON 23:45, 05:45, 11:45, 17:45 7 km 75h 1h
GFS 02:15, 08:15, 14:15, 20:15 25 km 237h 3h
30+ mm
25-30 mm
20-25 mm
15-20 mm
10-15 mm
6-10 mm
4-6 mm
2-4 mm
1-2 mm
0.5-1 mm
0.2-0.5 mm
0.1-0.2 mm
30+ mm
25-30 mm
20-25 mm
15-20 mm
10-15 mm
6-10 mm
4-6 mm
2-4 mm
1-2 mm
0.5-1 mm
0.2-0.5 mm
0.1-0.2 mm
Sneeuwval
Natte sneeuw
Hagel
Vorst
30+ mm
25-30 mm
20-25 mm
15-20 mm
10-15 mm
6-10 mm
4-6 mm
2-4 mm
1-2 mm
0.5-1 mm
0.2-0.5 mm
0.1-0.2 mm
Sneeuwval
Natte sneeuw
Hagel
Vorst
Onweer
50 mm
40 mm
30 mm
26 mm
22 mm
18 mm
14 mm
10 mm
9 mm
8 mm
7 mm
6 mm
5 mm
4.5 mm
4 mm
3.5 mm
3 mm
2.5 mm
2 mm
1.5 mm
1 mm
0.8 mm
0.6 mm
0.4 mm
0.2 mm
0.05 mm
35°
30°
25°
20°
15°
10°
-5°
-10°
-15°
-20°
-25°
-30°
-35°
33> m/s
29 m/s
25 m/s
21 m/s
17 m/s
14 m/s
11 m/s
8 m/s
5 m/s
3 m/s
0 m/s
2600 J/kg
2400 J/kg
2200 J/kg
2000 J/kg
1800 J/kg
1600 J/kg
1400 J/kg
1200 J/kg
1000 J/kg
800 J/kg
600 J/kg
400 J/kg
200 J/kg
70 dBZ
65 dBZ
60 dBZ
55 dBZ
50 dBZ
45 dBZ
40 dBZ
35 dBZ
30 dBZ
25 dBZ
20 dBZ
15 dBZ
10 dBZ
5 dBZ
-1 K
-2 K
-3 K
-4 K
-5 K
-6 K
-7 K
-8 K
-9 K
950 m²/s²
900 m²/s²
850 m²/s²
800 m²/s²
750 m²/s²
700 m²/s²
650 m²/s²
600 m²/s²
550 m²/s²
500 m²/s²
450 m²/s²
400 m²/s²
350 m²/s²
300 m²/s²
250 m²/s²
200 m²/s²
150 m²/s²
100 m²/s²
46 m/s
44 m/s
42 m/s
40 m/s
38 m/s
36 m/s
34 m/s
32 m/s
30 m/s
28 m/s
26 m/s
24 m/s
22 m/s
20 m/s
16 m/s
12 m/s
8 m/s
4 m/s
30 m/s
28 m/s
26 m/s
24 m/s
22 m/s
20 m/s
18 m/s
16 m/s
14 m/s
12 m/s
10 m/s
8 m/s
6 m/s
4 m/s
2 m/s
3.0
2.8
2.6
2.4
2.2
2.0
1.8
1.6
1.4
1.2
1.0
0.8
0.6
0.4
0.2
15
14
13
12
11
10
9
8
7
6
5
4
3
2
1
90%
80%
70%
60%
50%
40%
30%
20%
10%
42
40
38
36
34
32
30
28
26
24
22
20
18
16
14
12
90+ cm
80-90 cm
70-80 cm
60-70 cm
50-60 cm
40-50 cm
30-40 cm
20-30 cm
10-20 cm
1-10 cm
Sneeuwval
Natte sneeuw
Regen
>120 mm
115 mm
110 mm
105 mm
100 mm
95 mm
90 mm
85 mm
80 mm
75 mm
70 mm
65 mm
60 mm
55 mm
50 mm
45 mm
45 mm
40 mm
35 mm
30 mm
25 mm
20 mm
15 mm
10 mm
5 mm
0.1 mm
960 hPa
880 hPa
800 hPa
720 hPa
640 hPa
560 hPa
584 gpdm
568 gpdm
552 gpdm
536 gpdm
520 gpdm
504 gpdm
488 gpdm
Extreem zwaar Noodweer Kans op onweer
15% 15% 5% 50% 15%

Dag




Kaart






35°
30°
25°
20°
15°
10°
-5°
-10°
-15°